Regional Weather Roundup
Issued by NWS State College, PA

Home | Current Version | Previous Version | Graphics & Text | Print | Product List | Glossary Off
Versions: 1 2 3 4 5 6 7 8 9 10 11 12 13 14 15 16 17 18 19 20 21 22 23 24 25 26 27 28 29 30 31 32 33 34 35 36 37 38 39 40 41 42 43 44 45 46 47 48 49 50

000
ASUS41 KCTP 100503
RWRCTP

REGIONAL WEATHER ROUNDUP
NATIONAL WEATHER SERVICE STATE COLLEGE PA
1200 AM EST WED FEB 10 2016

Note: "fair" indicates few or no clouds below 12,000 feet with no
significant weather and/or obstructions to visibility.

* = STATION THAT DOES NOT REPORT PRECIPITATION /E.G. RAIN...SNOW...ETC/
    THUNDER OR FOG.

PAZ002>004-007>009-013>016-020>023-029>032-100600-
WESTERN PENNSYLVANIA

CITY           SKY/WX    TMP DP  RH WIND       PRES   REMARKS
ERIE           LGT SNOW  28  24  85 W17G28    29.62R FOG
MEADVILLE      FLURRIES  26  19  74 W16G24    29.61S WCI  14
FRANKLIN*      CLOUDY    25  19  80 W9        29.63S
NEW CASTLE     LGT SNOW  26  23  88 W9        29.68S FOG
BEAVER COUNTY  NOT AVBL
BUTLER*        CLOUDY    25  19  80 SW8       29.69F
PITTSBURGH INT FLURRIES  24  19  81 SW10      29.68S WCI  14
PITTSBURGH     CLOUDY    26  19  74 W14       29.68F WCI  14
INDIANA*       CLOUDY    25  23  93 W13       29.68S WCI  13
LATROBE        LGT SNOW  23  23 100 SW10      29.70F WCI  12
WASHINGTON CO* CLOUDY    25  18  74 SW9       29.72R
$$

PAZ004>006-010>012-017>019-024>028-033>037-041-042-045-046-049>053-100600-
CENTRAL PENNSYLVANIA

CITY           SKY/WX    TMP DP  RH WIND       PRES   REMARKS
BRADFORD       LGT SNOW  25  21  85 W10G17    29.51S VSB 3/4 WCI  15
DUBOIS         CLOUDY    24  20  84 SW14G22   29.57S FOG     WCI  12
CLEARFIELD     CLOUDY    26  22  84 W10       29.60S
JOHNSTOWN      LGT SNOW  20  15  81 W16G25    29.58F WCI   6
ALTOONA        CLOUDY    25  19  78 W10       29.63S WCI  15
STATE COLLEGE  CLOUDY    28  24  87 W10G18    29.61S
WILLIAMSPORT   CLOUDY    32  27  81 W10       29.57S
SELINSGROVE    CLOUDY    31  26  82 SW5       29.61R
FT INDIANTOWN  FLURRIES  30  30 100 SW7       29.60S
CAPITAL CITY   LGT SNOW  30  24  78 W10       29.63S
HARRISBURG     FLURRIES  31  25  78 W12       29.63S
YORK           LGT SNOW  28  25  88 W9        29.64S FOG
$$

PAZ038>040-043-044-047-048-054-055-060>062-067>071-100600-
EASTERN PENNSYLVANIA

CITY           SKY/WX    TMP DP  RH WIND       PRES   REMARKS
SCRANTON       LGT SNOW  30  28  92 SW5       29.54S VSB 1
MOUNT POCONO   LGT SNOW  26  23  88 W7        29.49S FOG
ALLENTOWN      CLOUDY    32  28  86 SW5       29.59S FOG
QUAKERTOWN*    CLOUDY    30  30 100 CALM      29.60R
READING        CLOUDY    31  28  89 SW3       29.60S FOG
LANCASTER      LGT SNOW  30  28  92 W13       29.62S FOG
COATESVILLE    LGT SNOW  30  30 100 W7        29.61S
POTTSTOWN      FOG       28  27  96 CALM      29.62S VSB 1/4
BLUE BELL        N/A     30  30 100 CALM      29.60S
DOYLESTOWN     CLOUDY    30  29  96 SW3       29.59S FOG
WILLOW GROVE   NOT AVBL
NORTH PHILA    CLOUDY    33  31  92 CALM      29.63S FOG
PHILADELPHIA   CLOUDY    35  31  85 W7        29.63S
$$



USA.gov is the U.S. government's official web portal to all federal, state and local government web resources and services.